Panama City Tyndall AFB, FL

5:12 AM CDT on June 29, 2017 (GMT -0500)
Tyndall Air Force Base

Weather History for KPAM - February, 2013

Change the Weather History Date:

Thursday, February 7, 2013

  Actual Average Record
Temperature  
Mean Temperature 64 °F -  
Max Temperature 71 °F 61 °F 73 °F (1999)
Min Temperature 57 °F 44 °F 32 °F (2009)
Degree Days  
Heating Degree Days 1    
Growing Degree Days 14 (Base 50)    
Moisture  
Dew Point 64 °F    
Average Humidity 100    
Maximum Humidity 100    
Minimum Humidity 94    
Precipitation  
Precipitation 0.86 in - - ()
Sea Level Pressure  
Sea Level Pressure 29.90 in    
Wind  
Wind Speed 11 mph (SE)    
Max Wind Speed 26 mph    
Max Gust Speed 36 mph    
Visibility 7 miles    
Events Rain    
Averages and records for this station are not official NWS values.
T = Trace of Precipitation, MM = Missing Value Source: NWS Daily Summary

Daily Weather History Graph

Daily Weather History Graph

Search for Another Location

Airport or City:

Trip Planner

Search our weather history database for the weather conditions in past years. The results will help you decide how hot, cold, wet, or windy it might be!

Date:

Astronomy

Feb. 07, 2013 Rise Set
Actual Time 6:28 AM CST 5:24 PM CST
Civil Twilight 6:03 AM CST 5:49 PM CST
Nautical Twilight 5:35 AM CST 6:17 PM CST
Astronomical Twilight 5:07 AM CST 6:46 PM CST
Moon 4:00 AM CST (2/7) 2:54 PM CST (2/7)
Length of Visible Light 11h 45m
Length of Day
10h 56m
Waning Crescent, 9% of the Moon is Illuminated
Feb 7
Waning Crescent
Feb 10
New
Feb 17
First Quarter
Feb 25
Full
Mar 4
Last Quarter

Hourly Weather History & Observations

Time (CST) Temp. Dew Point Humidity Pressure Visibility Wind Dir Wind Speed Gust Speed Precip Events Conditions
12:08 AM 57.2 °F 57.2 °F 100% 30.05 in 10.0 mi ESE 3.5 mph - N/A   Mostly Cloudy
12:18 AM 57.2 °F 57.2 °F 100% 30.04 in 10.0 mi ESE 6.9 mph - N/A   Mostly Cloudy
12:43 AM 59.0 °F 59.0 °F 100% 30.04 in 10.0 mi ESE 8.1 mph - N/A   Overcast
12:48 AM 59.0 °F 59.0 °F 100% 30.04 in 10.0 mi ESE 8.1 mph - N/A   Overcast
12:58 AM 59.9 °F 59.9 °F 100% 30.05 in 10.0 mi ESE 6.9 mph - N/A   Overcast
1:48 AM 60.8 °F 60.8 °F 100% 30.03 in 10.0 mi East 4.6 mph - N/A   Overcast
1:58 AM 60.3 °F 60.3 °F 100% 30.05 in 10.0 mi ESE 3.5 mph - N/A   Overcast
2:28 AM 59.0 °F 59.0 °F 100% 30.02 in 10.0 mi East 3.5 mph - N/A   Mostly Cloudy
2:58 AM 59.2 °F 59.2 °F 100% 30.01 in 10.0 mi East 6.9 mph - N/A   Mostly Cloudy
3:08 AM 59.0 °F 59.0 °F 100% 30.00 in 10.0 mi East 5.8 mph - N/A   Mostly Cloudy
3:13 AM 59.0 °F 59.0 °F 100% 30.00 in 10.0 mi East 5.8 mph - N/A   Mostly Cloudy
3:18 AM 59.0 °F 59.0 °F 100% 30.00 in 10.0 mi East 4.6 mph - N/A   Mostly Cloudy
3:28 AM 59.0 °F 59.0 °F 100% 30.00 in 10.0 mi East 5.8 mph - N/A   Mostly Cloudy
3:43 AM 60.8 °F 60.8 °F 100% 29.99 in 10.0 mi East 6.9 mph - N/A   Mostly Cloudy
3:58 AM 59.9 °F 59.9 °F 100% 29.99 in 10.0 mi East 9.2 mph - N/A   Partly Cloudy
4:58 AM 61.0 °F 61.0 °F 100% 29.98 in 10.0 mi ESE 9.2 mph - 0.00 in   Mostly Cloudy
5:48 AM 60.8 °F 60.8 °F 100% 29.98 in 9.0 mi ESE 5.8 mph - N/A Rain Light Rain
5:53 AM 60.8 °F 60.8 °F 100% 29.98 in 9.0 mi ESE 5.8 mph - N/A Rain Light Rain
5:58 AM 61.0 °F 61.0 °F 100% 29.99 in 10.0 mi ESE 5.8 mph - 0.03 in Rain Light Rain
6:08 AM 60.8 °F 60.8 °F 100% 29.98 in 10.0 mi East 4.6 mph - N/A Rain Light Rain
6:18 AM 60.8 °F 60.8 °F 100% 29.96 in 9.0 mi East 8.1 mph - N/A Rain Light Rain
6:43 AM 60.8 °F 60.8 °F 100% 29.95 in 5.0 mi ESE 9.2 mph - N/A Rain Light Rain
6:58 AM 61.0 °F 61.0 °F 100% 29.95 in 7.0 mi ESE 9.2 mph - 0.04 in Rain Light Rain
7:03 AM 60.8 °F 60.8 °F 100% 29.95 in 5.0 mi ESE 8.1 mph 17.3 mph N/A Rain Light Rain
7:08 AM 60.8 °F 60.8 °F 100% 29.95 in 2.0 mi ESE 10.4 mph - N/A Rain Heavy Rain
7:13 AM 60.8 °F 60.8 °F 100% 29.94 in 1.2 mi ESE 10.4 mph - N/A Rain Rain
7:18 AM 60.8 °F 60.8 °F 100% 29.93 in 1.8 mi ESE 8.1 mph - N/A Rain Light Rain
7:23 AM 62.6 °F 62.6 °F 100% 29.93 in 5.0 mi ESE 10.4 mph - N/A Rain Light Rain
7:33 AM 62.6 °F 62.6 °F 100% 29.92 in 10.0 mi ESE 12.7 mph - N/A   Mostly Cloudy
7:58 AM 62.8 °F 62.8 °F 100% 29.92 in 10.0 mi ESE 11.5 mph - 0.12 in   Mostly Cloudy
8:58 AM 64.8 °F 64.8 °F 100% 29.90 in 10.0 mi SE 13.8 mph - 0.00 in   Light Drizzle
9:04 AM 64.4 °F 64.4 °F 100% 29.90 in 10.0 mi SE 17.3 mph 23.0 mph N/A Rain Light Rain
9:18 AM 64.4 °F 64.4 °F 100% 29.89 in 9.0 mi SE 17.3 mph 24.2 mph N/A Rain Light Rain
9:25 AM 66.2 °F 66.2 °F 100% 29.91 in 2.5 mi SSE 17.3 mph 24.2 mph N/A Rain Light Rain
9:27 AM 66.2 °F 66.2 °F 100% 29.90 in 1.0 mi SSE 18.4 mph 24.2 mph N/A Rain Rain
9:29 AM 66.2 °F 66.2 °F 100% 29.91 in 4.0 mi SE 16.1 mph 23.0 mph N/A Rain Rain
9:36 AM 66.2 °F 66.2 °F 100% 29.91 in 1.5 mi SSE 17.3 mph - N/A Rain Rain Showers
9:39 AM 66.2 °F 66.2 °F 100% 29.91 in 3.0 mi SE 16.1 mph - N/A Rain Rain
9:44 AM 66.2 °F 66.2 °F 100% 29.89 in 2.0 mi SE 21.9 mph 26.5 mph N/A Rain Heavy Rain
9:49 AM 66.2 °F 66.2 °F 100% 29.88 in 2.5 mi SSE 25.3 mph 34.5 mph N/A Rain Light Rain
9:58 AM 66.2 °F 66.2 °F 100% 29.88 in 5.0 mi SSE 24.2 mph 31.1 mph 0.15 in Rain Light Rain
10:03 AM 66.2 °F 66.2 °F 100% 29.87 in 3.0 mi SSE 25.3 mph 33.4 mph N/A   Overcast
10:13 AM 66.2 °F 66.2 °F 100% 29.85 in 2.5 mi SSE 25.3 mph 34.5 mph N/A   Overcast
10:18 AM 66.2 °F 66.2 °F 100% 29.83 in 3.0 mi SE 26.5 mph 34.5 mph N/A   Overcast
10:28 AM 66.2 °F 66.2 °F 100% 29.86 in 1.0 mi SSE 24.2 mph 34.5 mph N/A Rain Light Rain
10:33 AM 66.2 °F 66.2 °F 100% 29.85 in 3.0 mi SSE 23.0 mph 33.4 mph N/A Rain Light Rain
10:38 AM 66.2 °F 66.2 °F 100% 29.85 in 1.2 mi SSE 21.9 mph 33.4 mph N/A Rain Light Rain
10:43 AM 66.2 °F 66.2 °F 100% 29.83 in 3.0 mi SE 23.0 mph 32.2 mph N/A   Overcast
10:58 AM 66.2 °F 66.2 °F 100% 29.84 in 4.0 mi SSE 20.7 mph 29.9 mph 0.22 in Rain Light Rain
11:08 AM 66.2 °F 66.2 °F 100% 29.83 in 10.0 mi SSE 21.9 mph 33.4 mph N/A   Light Drizzle
11:18 AM 68.0 °F 68.0 °F 100% 29.83 in 10.0 mi SSE 23.0 mph 35.7 mph N/A   Light Drizzle
11:23 AM 68.0 °F 68.0 °F 100% 29.84 in 4.0 mi SSE 21.9 mph 35.7 mph N/A Rain Rain
11:28 AM 66.2 °F 66.2 °F 100% 29.83 in 1.5 mi SSE 19.6 mph 35.7 mph N/A Rain Rain
11:34 AM 66.2 °F 66.2 °F 100% 29.82 in 4.0 mi SSE 23.0 mph 31.1 mph N/A Rain Light Rain
11:44 AM 68.0 °F 68.0 °F 100% 29.83 in 2.0 mi SSE 23.0 mph 31.1 mph N/A Rain Light Rain
11:49 AM 68.0 °F 68.0 °F 100% 29.83 in 0.5 mi SSE 20.7 mph 31.1 mph N/A Rain Heavy Rain
11:58 AM 66.2 °F 66.2 °F 100% 29.84 in 2.0 mi SSE 23.0 mph 29.9 mph 0.24 in Rain Rain
12:03 PM 66.2 °F 66.2 °F 100% 29.82 in 1.5 mi SSE 21.9 mph 29.9 mph N/A Rain Light Rain
12:08 PM 68.0 °F 68.0 °F 100% 29.81 in 2.0 mi SSE 20.7 mph 29.9 mph N/A Rain Light Rain
12:13 PM 68.0 °F 68.0 °F 100% 29.81 in 5.0 mi SSE 25.3 mph 31.1 mph N/A Rain Light Rain
12:18 PM 68.0 °F 68.0 °F 100% 29.82 in 4.0 mi SSE 20.7 mph 32.2 mph N/A   Overcast
12:22 PM 68.0 °F 68.0 °F 100% 29.83 in 6.0 mi South 18.4 mph 32.2 mph N/A   Overcast
12:24 PM 68.0 °F 68.0 °F 100% 29.83 in 6.0 mi SSW 15.0 mph 27.6 mph N/A   Overcast
12:29 PM 66.2 °F 66.2 °F 100% 29.83 in 5.0 mi South 16.1 mph 20.7 mph N/A Rain Rain
12:34 PM 66.2 °F 66.2 °F 100% 29.82 in 6.0 mi South 26.5 mph 34.5 mph N/A Rain Light Rain
12:39 PM 68.0 °F 68.0 °F 100% 29.82 in 10.0 mi South 17.3 mph 34.5 mph N/A   Light Drizzle
12:49 PM 68.0 °F 68.0 °F 100% 29.81 in 10.0 mi South 16.1 mph - N/A   Light Drizzle
12:58 PM 68.9 °F 68.9 °F 100% 29.81 in 10.0 mi South 16.1 mph - 0.06 in   Light Drizzle
1:03 PM 69.8 °F 69.8 °F 100% 29.80 in 10.0 mi South 15.0 mph - N/A   Light Drizzle
1:08 PM 69.8 °F 69.8 °F 100% 29.80 in 7.0 mi South 16.1 mph 23.0 mph N/A Rain Light Rain
1:13 PM 69.8 °F 69.8 °F 100% 29.80 in 10.0 mi South 15.0 mph 23.0 mph N/A   Light Drizzle
1:23 PM 69.8 °F 69.8 °F 100% 29.79 in 10.0 mi South 13.8 mph 21.9 mph N/A   Light Drizzle
1:50 PM 71.6 °F 71.6 °F 100% 29.79 in 10.0 mi SSW 13.8 mph - N/A   Mostly Cloudy
1:57 PM 71.6 °F 71.6 °F 100% 29.80 in 10.0 mi SSW 13.8 mph - N/A   Scattered Clouds
3:08 PM 71.6 °F 69.8 °F 94% 29.79 in 10.0 mi West 10.4 mph - N/A   Partly Cloudy
3:55 PM 69.8 °F 68.0 °F 94% 29.82 in 10.0 mi North 8.1 mph - N/A   Clear
4:58 PM 67.6 °F 66.6 °F 96% 29.85 in 10.0 mi NNW 9.2 mph - 0.00 in   Light Drizzle
5:08 PM 68.0 °F 66.2 °F 94% 29.84 in 10.0 mi North 8.1 mph - N/A   Light Drizzle
5:56 PM 64.4 °F 64.4 °F 100% 29.86 in 10.0 mi NNW 8.1 mph - N/A   Mostly Cloudy
6:58 PM 63.3 °F 63.3 °F 100% 29.90 in 10.0 mi North 10.4 mph - 0.00 in   Light Drizzle
6:59 PM 62.6 °F 62.6 °F 100% 29.89 in 10.0 mi North 10.4 mph - N/A   Overcast
7:08 PM 62.6 °F 62.6 °F 100% 29.89 in 10.0 mi North 6.9 mph - N/A   Light Drizzle
7:58 PM 60.6 °F 60.6 °F 100% 29.91 in 10.0 mi North 3.5 mph - 0.00 in   Light Drizzle
8:58 PM 58.5 °F 58.5 °F 100% 29.92 in 10.0 mi North - - 0.00 in   Light Drizzle
9:18 PM 57.2 °F 57.2 °F 100% 29.92 in 10.0 mi Calm Calm - N/A   Mostly Cloudy
9:58 PM 58.8 °F 58.8 °F 100% 29.94 in 10.0 mi Calm Calm - 0.00 in   Overcast
10:18 PM 59.0 °F 59.0 °F 100% 29.94 in 10.0 mi Calm Calm - N/A   Overcast
10:43 PM 59.0 °F 59.0 °F 100% 29.95 in 10.0 mi Calm Calm - N/A   Overcast
10:58 PM 59.5 °F 59.5 °F 100% 29.95 in 10.0 mi ENE 2.3 mph - N/A   Overcast
11:13 PM 59.0 °F 59.0 °F 100% 29.94 in 10.0 mi NNE 5.8 mph - N/A   Overcast
11:23 PM 59.0 °F 59.0 °F 100% 29.94 in 10.0 mi Variable 4.6 mph - N/A   Overcast
11:28 PM 59.0 °F 59.0 °F 100% 29.94 in 10.0 mi NNE 4.6 mph - N/A   Overcast
11:38 PM 59.0 °F 59.0 °F 100% 29.94 in 10.0 mi NNE 4.6 mph - N/A   Overcast
11:58 PM 59.2 °F 59.2 °F 100% 29.96 in 10.0 mi ENE 3.5 mph - N/A   Overcast